SAARSABE

Guest
Details From SAAR - Rosario (Islas Malvinas)
To SABE - Aeroparque Jorge Newbery
Flight Number -
Tags decoded
Created
Modified
Stats Distance 155 nm / 286 km
Max Altitude 0 ft / 0 m
Waypoints 3
Social Downloads 0
Likes 0
Share VATSIM

Download

Looking for another format? Having issues loading an existing format? Contact us
Advertisement - Login to hide

Notes

Requested: SAAR FDO SABE

Route

SAAR FDO SABE

ID Type Via Altitude Latitude Longitude Leg Dist Tot Dist Heading (true) Name
O SAAR APT - 0 ft / 0 m -32.90347˚ -60.78463˚ - 0 nm - Rosario (Islas Malvinas)
FDO VOR - 0 ft / 0 m -34.45139˚ -58.58417˚ 143 nm 143 nm 131° / 130° SAN FERNANDO VOR-DME
O SABE APT - 0 ft / 0 m -34.55941˚ -58.41575˚ 10 nm 154 nm 128° / 128° Aeroparque Jorge Newbery

Altitude Profile

Advertisement - Login to hide

SAAR

Details ICAO SAAR (ROS)
Name Rosario (Islas Malvinas)
Region Argentina
Timezone America/Argentina/Cordoba (UTC-3.0)
Stats Elevation 85 ft / 26 m (AMSL)
Location -32.903472° -60.784635°
Runways 1
Magnetic Variation 7.918° W

METAR

SAAR 241800Z 02007KT CAVOK 19/09 Q1023

Decode

TAF

TAF SAAR 241700Z 2418/2518 02005KT CAVOK TX22/2518Z TN08/2510Z PROB40 TEMPO 2506/2511 5000 BR NSC

Decode

Departure Runways

ID Width Length Bearing (true) Bearing (mag) Surface Threshold Offset Overrun Length
02 148 ft / 45 m 9,878 ft / 3,011 m 10.78° 18.70° Concrete 0 ft / 0 m 128 ft / 39 m
20 148 ft / 45 m 9,878 ft / 3,011 m 190.78° 198.70° Concrete 0 ft / 0 m 0 ft / 0 m

SABE

Details ICAO SABE (AEP)
Name Aeroparque Jorge Newbery
Region Argentina
Timezone Unknown (UTC+0.0)
Stats Elevation 17 ft / 5 m (AMSL)
Location -34.559414° -58.415749°
Runways 1
Magnetic Variation 9.054° W

METAR

SABE 241800Z 36008KT CAVOK 18/11 Q1023 NOSIG

Decode

TAF

TAF SABE 241700Z 2418/2518 36010KT CAVOK TX21/2518Z TN12/2510Z BECMG 2421/2423 34005KT

Decode

Destination Runways

ID Width Length Bearing (true) Bearing (mag) Surface Threshold Offset Overrun Length
13 131 ft / 40 m 6,882 ft / 2,098 m 123.87° 132.92° Concrete 0 ft / 0 m 791 ft / 241 m
31 131 ft / 40 m 6,882 ft / 2,098 m 303.86° 312.91° Concrete 991 ft / 302 m 0 ft / 0 m

Approach Navaids

Runway Type Ident Frequency Range Bearing (true) Bearing (mag) Slope Elevation
13 Localiser AE 109.50 MHz 18 nm / 33 km 123.95° 133.01° - 17 ft / 5 m (AMSL)
13 Glidescope AE 109.50 MHz 10 nm / 19 km 124.47° 133.52° 3.00° 17 ft / 5 m (AMSL)
13 DME AE 109.50 MHz 18 nm / 33 km - - - 17 ft / 5 m (AMSL)

Popular Alternatives